QPF
0.00 0.00 0.00 0.00 0.00 0.00 0.00 0.00 0.00 0.00 0.00 0.00 0.00 0.00 0.00 0.00 0.00 0.00 0.00 0.00 0.00 0.00 0.00 0.00 0.00 0.00 0.00 0.00 0.00 0.00 0.00 0.00 0.00 0.00 0.00 0.00 0.00 0.00 0.00 0.00 0.00 0.00 0.00 0.00 0.00 0.00 0.00 0.00 0.00 0.00 0.00 0.00 0.00 0.00
0.00 0.00 0.00 0.00 0.00 0.00 0.00 0.00 0.00 0.00 0.00 0.00 0.00 0.00 0.00 0.00 0.00 0.00 0.00 0.00 0.00 0.00 0.00 0.00 0.00 0.00 0.00 0.00 0.00 0.00 0.00 0.00 0.00 0.00 0.00 0.00 0.00 0.00 0.00 0.00 0.00 0.00 0.00 0.00 0.00 0.00 0.00 0.00 0.00 0.00 0.00 0.00 0.00 0.00
0.00 0.00 0.00 0.00 0.00 0.00 0.00 0.00 0.00 0.00 0.00 0.00 0.00 0.00 0.00 0.00 0.00 0.00 0.00 0.00 0.00 0.00 0.00 0.00 0.00 0.00 0.00 0.00 0.00 0.00 0.00 0.00 0.00 0.00 0.00 0.00 0.00 0.00 0.00 0.00 0.00 0.00 0.00 0.00 0.00 0.00 0.00 0.00 0.00 0.00 0.00 0.00 0.00 0.00
0.00 0.00 0.00 0.00 0.00 0.00 0.00 0.00 0.00 0.00 0.00 0.00 0.00 0.00 0.00 0.00 0.00 0.00 0.00 0.00 0.00 0.00 0.00 0.00 0.00 0.00 0.00 0.00 0.00 0.00 0.00 0.00 0.00 0.00 0.00 0.00 0.00 0.00 0.00 0.00 0.00 0.00 0.00 0.00 0.00 0.00 0.00 0.00 0.00 0.00 0.00 0.00 0.00 0.00
0.00 0.00 0.00 0.00 0.00 0.00 0.00 0.00 0.00 0.00 0.00 0.00 0.00 0.00 0.00 0.00 0.00 0.00 0.00 0.00 0.00 0.00 0.00 0.00 0.00 0.00 0.00 0.00 0.00 0.00 0.00 0.00 0.00 0.00 0.00 0.00 0.00 0.00 0.00 0.00 0.00 0.00 0.00 0.00 0.00 0.00 0.00 0.00 0.00 0.00 0.00 0.00 0.00 0.00
0.00 0.00 0.00 0.00 0.00 0.00 0.00 0.00 0.00 0.00 0.00 0.00 0.00 0.00 0.00 0.00 0.00 0.00 0.00 0.00 0.00 0.00 0.00 0.00 0.00 0.00 0.00 0.00 0.00 0.00 0.00 0.00 0.00 0.00 0.00 0.00 0.00 0.00 0.00 0.00 0.00 0.00 0.00 0.00 0.00 0.00 0.00 0.00 0.00 0.00 0.00 0.00 0.00 0.00
0.00 0.00 0.00 0.00 0.00 0.00 0.00 0.00 0.00 0.00 0.00 0.00 0.00 0.00 0.00 0.00 0.00 0.00 0.00 0.00 0.00 0.00 0.00 0.00 0.00 0.00 0.00 0.00 0.00 0.00 0.00 0.00 0.00 0.00 0.00 0.00 0.00 0.00 0.00 0.00 0.00 0.00 0.00 0.00 0.00 0.00 0.00 0.00 0.00 0.00 0.00 0.00 0.00 0.00
0.00 0.00 0.00 0.00 0.00 0.00 0.00 0.00 0.00 0.00 0.00 0.00 0.00 0.00 0.00 0.00 0.00 0.00 0.00 0.00 0.00 0.00 0.00 0.00 0.00 0.00 0.00 0.00 0.00 0.00 0.00 0.00 0.00 0.00 0.00 0.00 0.00 0.00 0.00 0.00 0.00 0.00 0.00 0.00 0.00 0.00 0.00 0.00 0.00 0.00 0.00 0.00 0.00 0.00
0.00 0.00 0.00 0.00 0.00 0.00 0.00 0.00 0.00 0.00 0.00 0.00 0.00 0.00 0.00 0.00 0.00 0.00 0.00 0.00 0.00 0.00 0.00 0.00 0.00 0.00 0.00 0.00 0.00 0.00 0.00 0.00 0.00 0.00 0.00 0.00 0.01 0.00 0.00 0.01 0.02 0.02 0.01 0.00 0.00 0.00 0.00 0.00 0.00 0.00 0.00 0.00 0.00 0.00
0.00 0.00 0.00 0.00 0.00 0.00 0.00 0.00 0.00 0.00 0.00 0.00 0.00 0.00 0.00 0.00 0.00 0.00 0.00 0.00 0.00 0.00 0.00 0.00 0.00 0.00 0.00 0.00 0.00 0.00 0.00 0.00 0.01 0.01 0.02 0.01 0.03 0.10 0.07 0.08 0.05 0.02 0.00 0.00 0.00 0.00 0.00 0.00 0.00 0.00 0.00 0.00 0.00 0.00
0.00 0.00 0.00 0.00 0.00 0.00 0.00 0.00 0.00 0.00 0.00 0.00 0.00 0.00 0.00 0.00 0.00 0.00 0.00 0.00 0.00 0.00 0.00 0.00 0.00 0.00 0.00 0.00 0.00 0.00 0.00 0.00 0.00 0.01 0.01 0.00 0.05 0.13 0.15 0.10 0.04 0.00 0.00 0.00 0.00 0.00 0.00 0.00 0.00 0.00 0.00 0.00 0.00 0.00
0.00 0.00 0.00 0.00 0.00 0.00 0.00 0.00 0.00 0.00 0.00 0.00 0.00 0.00 0.00 0.00 0.00 0.00 0.00 0.01 0.00 0.00 0.00 0.00 0.00 0.00 0.00 0.00 0.00 0.00 0.00 0.00 0.00 0.00 0.00 0.00 0.02 0.08 0.08 0.04 0.01 0.01 0.00 0.00 0.00 0.00 0.00 0.00 0.00 0.00 0.00 0.00 0.00 0.00
0.00 0.00 0.00 0.00 0.00 0.00 0.00 0.00 0.00 0.00 0.00 0.00 0.00 0.00 0.00 0.00 0.00 0.00 0.01 0.02 0.01 0.00 0.00 0.00 0.00 0.00 0.00 0.00 0.00 0.00 0.00 0.00 0.00 0.01 0.02 0.02 0.02 0.04 0.03 0.02 0.04 0.01 0.00 0.01 0.00 0.00 0.00 0.00 0.00 0.00 0.00 0.00 0.00 0.00
0.00 0.00 0.00 0.00 0.00 0.00 0.00 0.00 0.00 0.00 0.00 0.00 0.00 0.00 0.00 0.00 0.00 0.00 0.00 0.00 0.00 0.00 0.00 0.00 0.00 0.00 0.00 0.00 0.00 0.00 0.00 0.00 0.01 0.01 0.02 0.01 0.00 0.01 0.00 0.00 0.02 0.06 0.02 0.02 0.01 0.00 0.00 0.00 0.00 0.01 0.01 0.00 0.00 0.00
0.00 0.00 0.00 0.00 0.00 0.00 0.00 0.00 0.00 0.00 0.00 0.00 0.00 0.00 0.00 0.00 0.00 0.00 0.00 0.00 0.00 0.00 0.00 0.00 0.00 0.00 0.00 0.00 0.00 0.00 0.00 0.01 0.01 0.01 0.00 0.00 0.00 0.00 0.00 0.02 0.03 0.02 0.02 0.00 0.00 0.00 0.00 0.00 0.00 0.00 0.00 0.00 0.03 0.01
0.00 0.00 0.00 0.00 0.00 0.00 0.00 0.00 0.00 0.00 0.00 0.00 0.00 0.00 0.00 0.00 0.00 0.00 0.00 0.00 0.00 0.00 0.00 0.00 0.00 0.01 0.01 0.03 0.06 0.05 0.06 0.05 0.02 0.02 0.00 0.00 0.00 0.00 0.00 0.01 0.01 0.00 0.00 0.00 0.00 0.00 0.00 0.00 0.00 0.01 0.01 0.01 0.07 0.07
0.00 0.00 0.00 0.00 0.00 0.00 0.00 0.00 0.00 0.00 0.00 0.00 0.00 0.00 0.00 0.00 0.00 0.00 0.00 0.00 0.00 0.00 0.00 0.00 0.01 0.02 0.03 0.06 0.05 0.04 0.04 0.01 0.02 0.07 0.04 0.00 0.00 0.01 0.08 0.06 0.01 0.00 0.00 0.00 0.00 0.00 0.01 0.01 0.00 0.00 0.01 0.01 0.11 0.08
0.00 0.00 0.00 0.00 0.00 0.00 0.00 0.00 0.00 0.00 0.00 0.00 0.00 0.00 0.00 0.00 0.00 0.00 0.00 0.00 0.00 0.00 0.00 0.00 0.00 0.00 0.03 0.04 0.03 0.01 0.00 0.00 0.03 0.09 0.09 0.05 0.02 0.01 0.04 0.01 0.03 0.03 0.03 0.04 0.03 0.01 0.00 0.00 0.00 0.00 0.00 0.00 0.04 0.02
0.00 0.00 0.00 0.00 0.00 0.00 0.00 0.00 0.00 0.00 0.00 0.00 0.00 0.00 0.00 0.00 0.00 0.00 0.00 0.00 0.00 0.02 0.01 0.02 0.01 0.02 0.02 0.01 0.02 0.03 0.05 0.04 0.03 0.09 0.05 0.03 0.02 0.02 0.05 0.06 0.04 0.02 0.01 0.03 0.02 0.00 0.00 0.00 0.01 0.00 0.00 0.00 0.00 0.00
0.00 0.00 0.00 0.00 0.00 0.00 0.00 0.00 0.00 0.00 0.00 0.00 0.00 0.00 0.00 0.00 0.00 0.00 0.00 0.00 0.00 0.01 0.02 0.02 0.04 0.05 0.00 0.00 0.00 0.04 0.10 0.08 0.01 0.00 0.01 0.00 0.00 0.00 0.01 0.02 0.01 0.00 0.03 0.04 0.01 0.00 0.00 0.00 0.00 0.00 0.00 0.00 0.00 0.00
0.00 0.00 0.00 0.00 0.00 0.00 0.00 0.00 0.00 0.00 0.00 0.00 0.00 0.00 0.00 0.00 0.00 0.00 0.00 0.00 0.02 0.01 0.02 0.03 0.05 0.05 0.04 0.02 0.03 0.04 0.07 0.06 0.01 0.00 0.00 0.00 0.00 0.00 0.00 0.00 0.01 0.04 0.05 0.03 0.00 0.00 0.00 0.00 0.00 0.00 0.00 0.00 0.00 0.00
0.00 0.00 0.00 0.00 0.00 0.00 0.00 0.00 0.00 0.00 0.00 0.00 0.00 0.00 0.00 0.00 0.00 0.00 0.00 0.00 0.01 0.01 0.00 0.01 0.01 0.08 0.06 0.05 0.04 0.02 0.01 0.00 0.00 0.00 0.00 0.00 0.01 0.01 0.00 0.00 0.01 0.03 0.00 0.00 0.00 0.00 0.00 0.00 0.00 0.00 0.00 0.00 0.00 0.00
0.00 0.00 0.00 0.00 0.00 0.00 0.00 0.00 0.00 0.00 0.00 0.00 0.00 0.00 0.00 0.00 0.00 0.00 0.00 0.02 0.03 0.04 0.02 0.06 0.05 0.04 0.01 0.02 0.02 0.01 0.00 0.00 0.00 0.00 0.00 0.00 0.00 0.00 0.00 0.00 0.01 0.01 0.00 0.00 0.00 0.00 0.00 0.00 0.00 0.00 0.00 0.00 0.00 0.00
0.00 0.00 0.00 0.00 0.00 0.00 0.00 0.00 0.00 0.00 0.00 0.00 0.00 0.00 0.00 0.00 0.00 0.00 0.00 0.01 0.02 0.07 0.13 0.07 0.02 0.00 0.00 0.00 0.00 0.00 0.00 0.00 0.00 0.00 0.00 0.00 0.00 0.00 0.00 0.00 0.00 0.00 0.00 0.00 0.00 0.00 0.00 0.00 0.00 0.00 0.00 0.00 0.00 0.00
0.00 0.00 0.00 0.00 0.00 0.00 0.00 0.00 0.00 0.00 0.01 0.00 0.01 0.00 0.00 0.00 0.00 0.00 0.01 0.04 0.04 0.01 0.04 0.02 0.00 0.00 0.00 0.00 0.00 0.00 0.00 0.00 0.00 0.00 0.00 0.00 0.00 0.01 0.00 0.00 0.00 0.00 0.00 0.00 0.00 0.00 0.00 0.01 0.00 0.00 0.00 0.00 0.00 0.00
0.00 0.00 0.00 0.00 0.00 0.00 0.00 0.00 0.00 0.00 0.00 0.00 0.00 0.00 0.00 0.00 0.00 0.01 0.02 0.01 0.02 0.03 0.03 0.01 0.00 0.00 0.00 0.00 0.00 0.00 0.00 0.00 0.00 0.00 0.00 0.00 0.00 0.00 0.00 0.01 0.00 0.00 0.00 0.00 0.00 0.00 0.00 0.00 0.00 0.00 0.00 0.00 0.00 0.00
0.00 0.00 0.00 0.00 0.00 0.00 0.00 0.00 0.00 0.00 0.00 0.00 0.00 0.00 0.00 0.00 0.01 0.04 0.05 0.01 0.01 0.01 0.03 0.02 0.00 0.00 0.00 0.00 0.00 0.00 0.00 0.00 0.00 0.00 0.00 0.00 0.00 0.00 0.00 0.00 0.00 0.00 0.00 0.00 0.00 0.00 0.00 0.00 0.00 0.00 0.00 0.00 0.00 0.00
0.00 0.00 0.00 0.00 0.00 0.00 0.00 0.00 0.00 0.00 0.00 0.00 0.00 0.00 0.01 0.02 0.04 0.03 0.03 0.00 0.01 0.00 0.00 0.00 0.00 0.00 0.00 0.00 0.00 0.00 0.00 0.00 0.00 0.00 0.00 0.00 0.00 0.00 0.00 0.00 0.00 0.00 0.00 0.00 0.00 0.00 0.00 0.00 0.00 0.00 0.00 0.00 0.00 0.00
0.00 0.00 0.00 0.00 0.00 0.00 0.00 0.00 0.00 0.00 0.00 0.00 0.00 0.00 0.00 0.00 0.00 0.00 0.00 0.00 0.00 0.01 0.00 0.00 0.00 0.00 0.00 0.00 0.00 0.00 0.00 0.00 0.00 0.00 0.00 0.00 0.00 0.00 0.00 0.00 0.00 0.00 0.00 0.00 0.00 0.00 0.00 0.00 0.00 0.00 0.00 0.00 0.00 0.00
0.00 0.00 0.00 0.00 0.00 0.00 0.00 0.00 0.00 0.00 0.00 0.00 0.00 0.00 0.01 0.00 0.00 0.00 0.00 0.00 0.00 0.00 0.00 0.00 0.00 0.00 0.00 0.00 0.00 0.00 0.00 0.00 0.00 0.00 0.00 0.00 0.00 0.00 0.00 0.00 0.00 0.00 0.00 0.00 0.00 0.00 0.00 0.00 0.00 0.00 0.00 0.00 0.00 0.00
0.00 0.00 0.00 0.00 0.00 0.00 0.00 0.00 0.00 0.00 0.00 0.00 0.00 0.02 0.02 0.00 0.00 0.00 0.00 0.00 0.00 0.00 0.00 0.00 0.00 0.00 0.00 0.00 0.00 0.00 0.00 0.00 0.00 0.00 0.00 0.00 0.00 0.00 0.00 0.00 0.00 0.00 0.00 0.00 0.00 0.00 0.00 0.00 0.00 0.00 0.00 0.00 0.00 0.00
0.00 0.00 0.00 0.00 0.00 0.00 0.00 0.00 0.00 0.00 0.01 0.06 0.07 0.05 0.02 0.01 0.01 0.01 0.00 0.00 0.00 0.00 0.00 0.00 0.00 0.00 0.00 0.00 0.00 0.00 0.00 0.00 0.00 0.00 0.00 0.00 0.00 0.00 0.00 0.00 0.00 0.00 0.00 0.00 0.00 0.00 0.00 0.00 0.00 0.00 0.00 0.00 0.00 0.00
0.00 0.00 0.00 0.00 0.00 0.00 0.00 0.01 0.04 0.04 0.01 0.03 0.06 0.09 0.03 0.01 0.01 0.00 0.00 0.00 0.00 0.00 0.00 0.00 0.00 0.00 0.00 0.00 0.00 0.00 0.00 0.00 0.00 0.00 0.00 0.00 0.00 0.00 0.00 0.00 0.00 0.00 0.00 0.00 0.00 0.00 0.00 0.00 0.00 0.00 0.00 0.00 0.00 0.00
MSLP
1026.16 1025.64 1025.12 1024.60 1024.08 1023.51 1022.93 1022.24 1021.54 1020.79 1020.04 1019.36 1018.73 1018.12 1017.52 1016.97 1016.52 1016.27 1015.17 1014.16 1014.18 1013.89 1011.73 1010.46 1009.65 1009.42 1008.97 1008.67 1008.77 1007.97 1007.06 1006.82 1007.14 1007.60 1008.31 1008.21 1007.80 1006.65 1006.41 1005.89 1006.07 1006.99 1008.22 1009.33 1009.96 1010.49 1010.00 1008.87 1008.83 1009.53 1011.04 1011.72 1011.91 1012.23
1025.87 1025.40 1024.91 1024.37 1023.83 1023.28 1022.68 1021.99 1021.31 1020.64 1019.92 1019.19 1018.56 1018.03 1017.48 1017.00 1016.54 1016.20 1015.84 1013.80 1013.82 1014.05 1011.95 1010.20 1009.10 1008.65 1008.59 1008.17 1008.33 1008.36 1008.52 1008.40 1008.15 1008.40 1008.66 1008.55 1008.09 1007.58 1007.62 1007.40 1006.71 1007.56 1007.79 1009.00 1010.19 1010.63 1010.26 1009.56 1009.87 1010.70 1011.01 1011.42 1012.02 1012.49
1025.58 1025.14 1024.68 1024.13 1023.58 1023.03 1022.39 1021.74 1021.04 1020.35 1019.67 1018.97 1018.31 1017.74 1017.26 1016.82 1016.44 1016.24 1016.00 1015.04 1014.11 1013.68 1011.92 1010.42 1008.68 1007.11 1007.21 1007.34 1007.24 1008.40 1008.50 1008.08 1007.99 1007.95 1008.49 1008.65 1008.54 1008.12 1008.62 1008.37 1008.05 1007.92 1008.07 1009.50 1010.13 1011.60 1011.02 1010.74 1010.81 1010.88 1011.12 1011.87 1012.24 1012.54
1025.32 1024.89 1024.41 1023.91 1023.36 1022.75 1022.06 1021.39 1020.68 1019.98 1019.31 1018.63 1018.00 1017.38 1016.90 1016.49 1016.18 1015.93 1015.93 1014.98 1014.81 1014.16 1013.22 1010.54 1008.40 1007.73 1007.09 1006.55 1006.91 1007.40 1007.75 1007.79 1008.09 1008.15 1008.65 1008.92 1008.93 1008.11 1008.47 1008.55 1008.82 1008.78 1008.81 1010.28 1011.13 1011.60 1011.38 1011.43 1011.22 1011.27 1011.59 1011.89 1012.38 1012.97
1025.05 1024.65 1024.18 1023.70 1023.12 1022.44 1021.76 1021.06 1020.33 1019.56 1018.85 1018.18 1017.56 1016.97 1016.47 1016.07 1015.71 1015.47 1015.38 1014.57 1014.28 1014.64 1013.93 1011.90 1009.63 1007.90 1007.09 1007.01 1007.22 1007.28 1007.60 1008.14 1008.67 1008.97 1009.13 1009.21 1008.50 1008.47 1008.57 1008.99 1009.40 1009.17 1009.28 1010.11 1010.98 1010.70 1010.69 1011.44 1011.30 1011.17 1011.55 1012.00 1012.55 1013.04
1024.82 1024.43 1023.99 1023.46 1022.85 1022.15 1021.44 1020.70 1019.91 1019.09 1018.35 1017.65 1016.99 1016.40 1016.00 1015.68 1015.39 1015.24 1014.94 1014.28 1013.95 1013.87 1014.17 1012.92 1010.16 1008.93 1008.11 1007.77 1007.82 1008.01 1008.16 1008.19 1008.73 1009.23 1009.06 1008.66 1007.86 1008.18 1008.97 1010.09 1009.78 1009.28 1008.76 1008.64 1009.73 1010.12 1010.52 1010.97 1011.08 1011.14 1011.60 1012.06 1012.56 1013.04
1024.54 1024.14 1023.65 1023.13 1022.50 1021.85 1021.13 1020.34 1019.49 1018.59 1017.70 1016.93 1016.27 1015.65 1015.35 1015.23 1015.38 1015.09 1014.56 1013.87 1013.79 1013.97 1014.09 1013.36 1011.55 1009.84 1009.18 1009.14 1009.42 1009.42 1008.97 1008.96 1008.90 1009.15 1009.05 1008.79 1008.34 1008.20 1009.24 1010.24 1009.85 1009.39 1008.99 1009.20 1009.54 1010.05 1011.02 1011.13 1011.54 1011.58 1011.70 1012.01 1012.45 1013.03
1024.18 1023.80 1023.35 1022.77 1022.17 1021.53 1020.79 1019.98 1019.09 1018.13 1017.02 1016.05 1015.28 1014.72 1014.45 1014.54 1014.71 1014.15 1013.14 1012.81 1013.74 1014.16 1014.01 1013.60 1012.40 1011.21 1010.58 1011.38 1011.50 1011.28 1011.07 1010.51 1010.33 1010.14 1009.15 1008.99 1008.59 1008.82 1009.89 1009.84 1009.90 1009.60 1009.40 1009.53 1009.97 1010.19 1010.83 1011.39 1011.63 1011.88 1011.97 1012.34 1012.78 1013.29
1023.90 1023.46 1022.94 1022.45 1021.87 1021.23 1020.50 1019.68 1018.77 1017.68 1016.35 1015.08 1014.23 1013.85 1014.14 1014.31 1014.32 1013.63 1013.04 1013.22 1013.48 1014.34 1014.18 1013.81 1013.39 1012.80 1011.87 1012.68 1013.08 1012.63 1012.53 1012.44 1011.88 1011.35 1010.71 1010.19 1010.15 1010.00 1009.77 1009.84 1010.10 1010.01 1009.86 1010.03 1010.24 1010.66 1011.07 1011.51 1011.89 1012.01 1012.14 1012.61 1012.88 1013.27
1023.56 1023.12 1022.63 1022.12 1021.55 1020.93 1020.25 1019.50 1018.60 1017.42 1015.93 1014.48 1013.81 1014.22 1014.51 1013.98 1013.59 1013.60 1013.40 1013.46 1013.57 1013.70 1013.85 1014.01 1013.43 1013.45 1013.21 1013.73 1014.07 1014.33 1014.08 1014.14 1013.55 1012.75 1011.79 1011.80 1011.60 1011.02 1010.84 1010.88 1010.83 1010.61 1010.30 1010.08 1010.55 1011.15 1011.41 1011.71 1011.90 1012.13 1012.30 1012.46 1012.59 1013.03
1023.22 1022.79 1022.27 1021.75 1021.22 1020.64 1020.00 1019.39 1018.73 1017.62 1016.18 1016.05 1016.54 1016.35 1015.09 1013.82 1013.55 1013.57 1013.59 1013.74 1013.53 1013.82 1013.69 1013.77 1013.89 1013.86 1013.67 1014.35 1015.04 1015.28 1015.14 1014.86 1014.37 1013.68 1013.18 1012.67 1012.43 1012.55 1012.00 1011.81 1011.30 1011.12 1010.72 1010.53 1010.56 1010.70 1010.96 1011.26 1011.67 1012.00 1012.18 1012.32 1012.48 1012.76
1022.78 1022.36 1021.83 1021.33 1020.82 1020.31 1019.76 1019.24 1018.84 1018.54 1018.32 1018.08 1018.22 1017.63 1016.39 1014.83 1013.93 1013.77 1013.38 1013.18 1013.38 1013.73 1013.76 1013.86 1013.98 1013.95 1014.00 1014.16 1015.08 1015.45 1015.43 1015.18 1014.77 1014.16 1013.60 1013.87 1013.60 1013.22 1012.74 1012.41 1012.15 1012.10 1011.26 1010.71 1010.55 1010.62 1010.78 1011.02 1011.30 1011.72 1011.96 1012.31 1012.45 1012.65
1022.36 1021.87 1021.33 1020.81 1020.33 1019.89 1019.40 1018.91 1018.55 1018.33 1017.77 1017.78 1017.77 1017.13 1016.05 1014.73 1014.04 1013.42 1013.18 1013.31 1013.39 1013.35 1013.71 1013.94 1014.23 1014.19 1014.08 1014.33 1015.06 1015.42 1015.35 1014.98 1014.35 1014.21 1013.70 1014.08 1013.64 1013.33 1013.06 1012.54 1012.41 1011.75 1011.55 1011.64 1011.35 1010.72 1010.73 1010.94 1011.12 1011.42 1011.80 1012.18 1012.42 1012.53
1021.89 1021.31 1020.74 1020.22 1019.79 1019.31 1018.85 1018.36 1018.14 1017.95 1017.92 1017.54 1016.71 1016.21 1015.20 1013.96 1013.23 1012.78 1012.60 1012.85 1013.05 1013.08 1013.40 1013.76 1014.09 1014.22 1013.97 1014.54 1014.78 1015.13 1014.54 1013.97 1013.92 1013.84 1013.88 1013.50 1013.12 1013.52 1013.04 1012.83 1012.56 1012.61 1012.56 1012.14 1011.47 1011.38 1010.89 1011.00 1011.18 1011.47 1011.77 1012.03 1012.16 1012.30
1021.38 1020.71 1020.11 1019.60 1019.20 1018.86 1018.32 1017.77 1017.58 1017.77 1017.66 1016.93 1015.69 1014.83 1013.81 1012.88 1012.52 1012.38 1012.45 1012.79 1012.81 1012.92 1013.27 1013.81 1014.14 1014.39 1014.32 1014.40 1014.22 1014.28 1014.11 1013.95 1013.88 1013.94 1013.58 1013.22 1013.18 1013.40 1013.51 1013.26 1013.03 1012.93 1013.01 1012.36 1012.07 1011.85 1011.53 1011.42 1011.47 1011.67 1011.71 1011.86 1012.06 1012.20
1021.00 1020.20 1019.45 1019.23 1018.88 1018.30 1017.63 1017.02 1016.88 1017.15 1016.68 1015.97 1014.80 1013.84 1012.91 1012.57 1012.56 1012.55 1012.28 1012.67 1012.55 1012.90 1013.35 1013.81 1014.20 1014.42 1014.27 1014.16 1014.31 1014.42 1014.46 1014.65 1014.73 1014.40 1013.98 1013.36 1013.00 1013.10 1013.34 1013.50 1013.35 1012.83 1012.43 1012.34 1012.14 1011.95 1011.83 1011.75 1011.79 1011.90 1011.94 1011.92 1011.92 1011.88
1020.70 1020.17 1019.26 1019.00 1018.42 1017.64 1016.75 1016.95 1016.59 1016.43 1015.62 1014.79 1013.84 1012.82 1012.64 1012.55 1012.52 1012.27 1012.15 1012.29 1012.20 1012.97 1013.75 1013.90 1014.14 1013.86 1014.00 1014.28 1014.85 1014.81 1014.91 1015.32 1014.94 1014.38 1013.69 1013.51 1013.32 1012.98 1013.17 1013.00 1012.63 1012.34 1012.16 1012.11 1012.08 1011.97 1011.94 1011.98 1011.93 1012.02 1012.01 1011.78 1011.83 1011.84
1020.62 1019.51 1019.22 1019.00 1018.73 1017.84 1017.09 1016.58 1016.33 1015.57 1014.79 1013.92 1013.50 1012.78 1012.29 1012.08 1012.29 1012.18 1012.09 1012.00 1012.33 1012.73 1013.34 1013.67 1013.74 1014.12 1014.32 1014.61 1014.96 1015.06 1015.15 1014.87 1014.19 1013.70 1013.65 1013.43 1013.14 1012.74 1012.72 1012.36 1012.31 1012.38 1012.27 1012.27 1012.21 1012.17 1012.10 1012.02 1012.11 1012.10 1011.93 1011.93 1011.87 1011.57
1020.22 1019.73 1019.06 1018.78 1019.17 1019.11 1018.24 1016.30 1015.75 1015.26 1014.30 1013.65 1013.12 1012.67 1012.31 1012.26 1012.11 1011.92 1012.02 1011.83 1011.93 1012.42 1013.11 1013.77 1014.29 1014.66 1014.75 1014.76 1014.84 1014.87 1014.85 1014.78 1014.37 1014.14 1013.73 1013.28 1013.00 1012.70 1012.45 1012.42 1012.46 1012.43 1012.36 1012.27 1012.15 1012.11 1012.08 1012.06 1012.07 1012.01 1011.96 1011.89 1011.70 1011.52
1019.45 1018.89 1018.34 1018.24 1018.54 1018.86 1018.03 1016.41 1014.96 1015.00 1014.50 1013.78 1013.30 1012.97 1012.71 1012.58 1012.26 1012.06 1012.09 1012.12 1012.45 1012.88 1013.63 1014.01 1014.35 1014.25 1014.27 1014.25 1014.09 1014.15 1014.29 1014.23 1014.01 1013.95 1013.67 1013.29 1012.96 1012.75 1012.70 1012.68 1012.67 1012.42 1012.20 1012.08 1012.00 1011.92 1012.05 1012.25 1012.05 1012.05 1011.94 1011.92 1011.92 1011.90
1019.09 1018.29 1017.88 1018.11 1018.29 1018.51 1017.99 1016.65 1015.64 1014.82 1014.37 1014.06 1013.47 1013.13 1012.72 1012.40 1012.39 1012.42 1012.34 1012.20 1012.97 1013.73 1014.19 1014.21 1014.26 1013.98 1013.58 1013.41 1013.66 1013.72 1013.68 1013.70 1013.68 1013.68 1013.55 1013.37 1012.97 1012.89 1012.63 1012.37 1012.27 1012.30 1012.28 1012.15 1012.17 1012.36 1012.44 1012.44 1012.45 1012.39 1012.26 1012.07 1011.90 1011.80
1019.15 1018.29 1018.19 1017.80 1017.92 1017.61 1017.38 1016.19 1015.77 1015.04 1014.69 1014.04 1013.58 1013.03 1012.99 1012.90 1012.75 1012.39 1012.22 1012.81 1013.50 1014.02 1014.22 1014.25 1014.31 1014.20 1013.81 1013.67 1013.61 1013.50 1013.43 1013.44 1013.37 1013.27 1013.09 1013.02 1013.03 1012.93 1012.68 1012.43 1012.30 1012.37 1012.30 1012.34 1012.42 1012.38 1012.29 1012.27 1012.22 1012.16 1012.00 1011.65 1011.50 1011.46
1019.09 1018.62 1018.49 1017.89 1017.77 1017.75 1016.96 1015.85 1015.45 1014.70 1014.48 1013.89 1013.32 1013.13 1012.87 1012.74 1012.39 1011.95 1012.63 1013.22 1013.79 1014.28 1014.30 1014.22 1014.13 1013.89 1013.87 1013.67 1013.52 1013.56 1013.50 1013.53 1013.51 1013.37 1013.26 1013.27 1013.24 1013.03 1012.79 1012.62 1012.44 1012.44 1012.54 1012.50 1012.33 1012.25 1012.01 1012.05 1012.13 1011.92 1011.46 1011.24 1011.15 1011.39
1018.76 1018.81 1018.44 1018.00 1017.70 1017.32 1016.37 1015.49 1014.85 1014.52 1014.02 1013.75 1013.48 1013.18 1012.95 1012.77 1012.36 1012.50 1013.15 1014.15 1014.57 1014.54 1014.40 1014.05 1014.17 1014.39 1014.24 1014.05 1014.18 1014.06 1013.98 1013.81 1013.63 1013.78 1013.75 1013.58 1013.29 1013.12 1012.92 1012.84 1012.58 1012.40 1012.31 1012.10 1012.13 1012.28 1012.43 1012.11 1012.01 1011.76 1011.44 1011.36 1011.54 1011.74
1019.44 1019.09 1018.75 1018.05 1017.31 1016.78 1015.90 1015.02 1014.47 1014.20 1013.92 1013.58 1013.34 1013.08 1012.94 1012.62 1012.84 1013.16 1013.71 1014.50 1014.72 1014.44 1014.13 1014.02 1014.28 1014.34 1014.43 1014.38 1014.20 1014.10 1013.83 1013.64 1013.67 1013.92 1013.83 1013.50 1013.32 1013.09 1012.96 1012.71 1012.56 1012.37 1012.24 1012.27 1012.22 1012.03 1011.85 1011.88 1012.02 1011.50 1011.37 1011.53 1011.71 1012.07
1019.19 1018.28 1018.05 1017.00 1016.20 1015.89 1015.13 1014.61 1014.25 1014.05 1013.88 1013.56 1013.22 1012.95 1012.82 1012.96 1013.13 1013.53 1014.15 1014.26 1014.38 1014.20 1013.96 1014.16 1014.25 1014.21 1014.36 1014.31 1014.36 1014.20 1013.86 1013.53 1013.50 1013.67 1013.54 1013.39 1013.49 1013.59 1013.59 1013.41 1012.71 1012.11 1011.82 1011.93 1012.05 1011.92 1011.63 1011.27 1011.42 1011.26 1011.34 1011.57 1011.73 1012.10
1018.30 1017.33 1016.58 1015.81 1015.46 1014.98 1014.66 1014.26 1014.04 1014.03 1013.82 1013.44 1013.28 1013.15 1013.08 1013.05 1013.21 1013.99 1013.87 1013.92 1014.00 1013.48 1013.34 1013.72 1013.91 1014.13 1014.33 1014.30 1014.29 1014.03 1013.82 1013.56 1013.51 1013.57 1013.31 1013.05 1012.74 1012.61 1012.85 1012.93 1012.75 1012.09 1011.65 1011.47 1011.29 1011.12 1010.94 1010.83 1010.72 1010.84 1011.28 1011.43 1011.64 1011.71
1017.22 1016.30 1015.83 1015.34 1014.97 1014.58 1014.39 1014.15 1014.07 1013.82 1013.54 1013.29 1013.25 1013.24 1013.28 1013.26 1013.44 1013.67 1013.56 1013.31 1013.16 1013.22 1013.27 1013.27 1013.36 1013.94 1014.03 1014.24 1014.26 1014.09 1013.91 1013.56 1013.40 1013.16 1012.88 1012.31 1011.73 1011.54 1011.73 1011.90 1011.91 1011.87 1011.64 1011.32 1011.08 1010.97 1011.03 1011.08 1011.16 1011.30 1011.46 1011.63 1011.68 1011.64
1016.51 1015.70 1015.36 1014.80 1014.39 1014.01 1013.78 1013.63 1013.56 1013.30 1013.02 1013.08 1013.21 1013.24 1013.19 1012.97 1012.69 1012.80 1012.82 1012.75 1012.60 1012.94 1013.25 1013.35 1013.62 1013.77 1013.82 1013.97 1014.03 1013.86 1013.78 1013.69 1013.80 1013.60 1013.43 1013.05 1012.47 1011.90 1011.36 1011.29 1011.59 1011.67 1011.60 1011.58 1011.26 1011.14 1011.12 1011.31 1011.31 1011.34 1011.39 1011.39 1011.46 1011.37
1015.23 1014.60 1014.51 1013.90 1013.57 1013.34 1013.01 1012.83 1012.69 1012.48 1012.53 1012.44 1012.55 1012.77 1012.63 1012.27 1012.02 1011.75 1011.92 1012.23 1012.50 1012.63 1012.46 1012.54 1012.79 1013.14 1013.21 1013.62 1013.61 1013.48 1013.42 1013.38 1013.32 1013.59 1013.62 1013.40 1012.93 1012.20 1011.69 1011.57 1011.50 1011.43 1011.43 1011.53 1011.50 1011.42 1011.24 1011.12 1011.05 1011.21 1011.39 1011.58 1011.39 1011.35
1013.77 1013.63 1013.62 1013.23 1012.86 1012.29 1011.95 1011.84 1011.68 1011.69 1011.80 1011.92 1012.03 1012.42 1012.26 1012.04 1011.71 1011.45 1011.52 1011.58 1011.64 1011.84 1012.11 1012.27 1012.41 1012.55 1012.66 1012.84 1012.94 1013.03 1012.89 1012.72 1012.81 1012.81 1012.85 1012.91 1012.52 1012.14 1011.88 1011.58 1011.51 1011.55 1011.55 1011.56 1011.59 1011.49 1011.39 1011.35 1011.24 1011.31 1011.43 1011.43 1011.37 1011.32
1012.83 1012.66 1012.46 1012.29 1012.01 1011.40 1011.14 1011.31 1011.55 1011.77 1011.84 1011.89 1012.04 1011.88 1011.99 1012.16 1012.10 1011.80 1011.33 1011.38 1011.66 1011.70 1011.76 1011.83 1011.95 1012.09 1012.00 1012.23 1012.25 1012.45 1012.30 1012.57 1012.74 1012.64 1012.49 1012.58 1012.49 1012.20 1012.02 1011.93 1011.72 1011.57 1011.50 1011.58 1011.67 1011.51 1011.34 1011.36 1011.29 1011.23 1011.20 1011.18 1011.11 1011.02
1011.80 1011.62 1011.48 1011.50 1011.40 1011.18 1011.14 1011.20 1011.33 1011.78 1011.84 1011.94 1011.87 1011.80 1011.89 1011.95 1011.83 1011.63 1011.12 1011.00 1011.25 1011.14 1011.14 1011.20 1011.33 1011.44 1011.69 1012.00 1012.24 1012.42 1012.48 1012.52 1012.57 1012.56 1012.48 1012.41 1012.30 1012.19 1012.07 1011.96 1011.90 1011.81 1011.82 1011.92 1011.75 1011.67 1011.59 1011.48 1011.40 1011.17 1011.02 1010.95 1010.86 1010.73
Thickness
5610 5612 5614 5615 5616 5617 5618 5621 5624 5628 5632 5635 5637 5641 5643 5646 5649 5652 5661 5669 5668 5667 5686 5701 5707 5702 5706 5707 5698 5712 5718 5728 5723 5713 5711 5712 5712 5729 5735 5743 5733 5727 5711 5710 5707 5694 5697 5748 5747 5727 5720 5726 5727 5726
5609 5611 5612 5614 5615 5616 5618 5620 5623 5627 5631 5635 5637 5640 5643 5645 5647 5649 5651 5667 5667 5664 5680 5699 5709 5714 5713 5717 5708 5708 5706 5708 5715 5706 5708 5708 5714 5714 5712 5709 5735 5719 5722 5710 5710 5698 5721 5731 5730 5727 5728 5724 5723 5716
5608 5609 5610 5612 5614 5615 5617 5619 5622 5626 5630 5634 5638 5640 5642 5644 5646 5647 5647 5654 5662 5663 5676 5687 5703 5722 5724 5724 5727 5698 5703 5715 5717 5722 5709 5706 5709 5708 5695 5701 5714 5721 5727 5705 5706 5705 5711 5716 5720 5723 5721 5713 5711 5711
5605 5606 5607 5609 5612 5614 5616 5619 5622 5626 5629 5634 5637 5641 5643 5644 5646 5647 5646 5653 5653 5656 5657 5678 5707 5705 5719 5726 5723 5718 5713 5714 5712 5711 5704 5697 5697 5710 5697 5701 5700 5707 5712 5694 5688 5697 5703 5705 5708 5708 5706 5706 5703 5700
5603 5604 5605 5607 5610 5612 5615 5617 5621 5626 5630 5634 5638 5641 5644 5645 5647 5649 5649 5654 5655 5650 5646 5660 5686 5705 5713 5713 5710 5711 5708 5701 5693 5690 5689 5687 5694 5699 5696 5692 5686 5697 5695 5683 5677 5696 5695 5692 5697 5701 5699 5698 5694 5688
5602 5602 5604 5606 5608 5610 5613 5616 5620 5626 5630 5635 5639 5642 5644 5645 5647 5649 5649 5654 5655 5654 5646 5646 5678 5689 5696 5700 5697 5695 5695 5694 5689 5683 5683 5688 5699 5691 5679 5665 5686 5691 5700 5704 5691 5698 5694 5691 5693 5696 5691 5687 5684 5681
5600 5601 5602 5604 5606 5608 5611 5615 5620 5626 5632 5637 5641 5645 5646 5646 5644 5645 5645 5653 5653 5650 5643 5642 5653 5678 5683 5679 5676 5674 5680 5678 5679 5674 5674 5675 5680 5681 5667 5656 5679 5687 5693 5693 5693 5690 5679 5682 5677 5681 5682 5681 5678 5674
5598 5598 5599 5601 5604 5606 5609 5614 5619 5625 5633 5640 5645 5648 5649 5647 5644 5647 5654 5656 5648 5643 5640 5634 5643 5653 5664 5646 5645 5652 5650 5654 5656 5655 5666 5665 5668 5664 5651 5662 5669 5678 5682 5681 5677 5676 5672 5669 5669 5669 5670 5667 5662 5658
5593 5594 5596 5598 5600 5603 5607 5611 5617 5625 5634 5644 5649 5651 5647 5643 5641 5645 5650 5648 5645 5637 5630 5631 5625 5624 5644 5630 5627 5631 5630 5628 5633 5635 5639 5646 5638 5641 5656 5659 5658 5661 5664 5661 5664 5661 5659 5657 5654 5656 5656 5654 5651 5648
5589 5591 5593 5595 5597 5600 5603 5608 5614 5622 5633 5644 5647 5644 5638 5639 5641 5641 5640 5637 5634 5632 5627 5623 5625 5619 5624 5616 5610 5609 5608 5603 5603 5613 5622 5620 5625 5637 5639 5640 5641 5645 5650 5655 5648 5643 5645 5646 5645 5646 5646 5647 5647 5643
5587 5588 5589 5591 5593 5596 5600 5603 5607 5615 5626 5624 5615 5622 5628 5637 5637 5633 5628 5626 5628 5625 5623 5620 5617 5611 5616 5605 5597 5594 5592 5590 5590 5596 5601 5605 5610 5614 5623 5625 5632 5637 5642 5644 5645 5646 5645 5643 5639 5638 5637 5639 5640 5637
5585 5586 5587 5589 5591 5593 5596 5599 5601 5603 5602 5603 5600 5602 5611 5623 5625 5624 5620 5627 5624 5616 5617 5612 5610 5609 5607 5604 5592 5587 5587 5584 5579 5589 5594 5592 5600 5604 5612 5616 5620 5623 5631 5636 5638 5638 5638 5636 5634 5631 5630 5628 5628 5627
5583 5585 5587 5588 5590 5591 5594 5596 5597 5599 5603 5602 5600 5607 5613 5617 5606 5616 5616 5609 5609 5616 5611 5607 5601 5602 5599 5597 5587 5584 5582 5578 5589 5585 5592 5590 5595 5600 5603 5609 5612 5619 5620 5617 5619 5629 5631 5630 5629 5627 5624 5621 5620 5620
5582 5584 5587 5588 5589 5591 5592 5595 5596 5597 5596 5601 5609 5591 5609 5613 5615 5615 5618 5608 5610 5614 5607 5602 5602 5595 5599 5592 5586 5583 5585 5592 5590 5589 5586 5587 5594 5593 5599 5602 5603 5603 5605 5608 5613 5615 5622 5621 5621 5619 5617 5616 5615 5614
5581 5584 5587 5588 5588 5589 5592 5595 5595 5593 5592 5599 5608 5600 5612 5621 5617 5618 5617 5609 5609 5607 5604 5597 5590 5590 5588 5589 5587 5586 5592 5591 5591 5588 5590 5593 5594 5592 5590 5593 5595 5596 5595 5602 5605 5607 5611 5612 5612 5612 5613 5611 5608 5608
5579 5583 5585 5584 5585 5588 5592 5595 5594 5591 5594 5597 5605 5608 5616 5615 5612 5607 5608 5603 5605 5602 5595 5589 5587 5584 5585 5585 5585 5587 5584 5580 5578 5580 5584 5592 5594 5592 5590 5588 5588 5594 5599 5600 5601 5604 5606 5606 5605 5604 5603 5604 5604 5604
5577 5577 5581 5580 5583 5588 5593 5590 5592 5591 5596 5601 5601 5611 5612 5607 5601 5606 5606 5602 5602 5594 5583 5583 5583 5588 5583 5581 5573 5580 5572 5570 5572 5579 5586 5588 5590 5591 5589 5590 5594 5597 5598 5599 5599 5599 5599 5599 5598 5596 5597 5599 5600 5599
5571 5577 5575 5575 5575 5581 5585 5587 5587 5592 5595 5599 5596 5601 5605 5606 5600 5599 5600 5600 5598 5591 5582 5581 5580 5578 5577 5577 5569 5569 5567 5571 5580 5583 5582 5583 5586 5589 5588 5591 5590 5589 5590 5590 5591 5591 5591 5591 5589 5590 5593 5594 5594 5598
5567 5569 5571 5571 5565 5563 5567 5582 5583 5582 5589 5596 5598 5601 5602 5600 5599 5599 5595 5597 5594 5587 5583 5574 5572 5565 5566 5568 5569 5569 5569 5569 5574 5575 5579 5583 5584 5584 5585 5585 5583 5582 5583 5583 5584 5584 5584 5585 5585 5587 5588 5588 5591 5593
5566 5568 5569 5568 5564 5559 5567 5575 5585 5579 5579 5586 5591 5588 5590 5589 5588 5589 5589 5590 5585 5581 5575 5571 5568 5569 5568 5569 5570 5571 5570 5572 5574 5574 5576 5577 5578 5579 5576 5574 5572 5576 5577 5578 5578 5580 5580 5579 5582 5582 5584 5583 5583 5584
5560 5564 5565 5563 5559 5554 5557 5565 5569 5575 5576 5575 5581 5583 5584 5584 5582 5580 5579 5582 5573 5567 5564 5565 5566 5569 5574 5575 5573 5571 5572 5573 5574 5572 5571 5571 5573 5573 5572 5573 5574 5573 5573 5574 5574 5572 5572 5573 5575 5574 5576 5578 5579 5580
5551 5556 5555 5558 5557 5558 5553 5561 5562 5566 5567 5571 5572 5578 5575 5570 5569 5573 5578 5574 5570 5566 5563 5562 5561 5563 5568 5571 5572 5573 5574 5574 5574 5572 5570 5572 5569 5568 5570 5572 5573 5570 5570 5569 5568 5570 5572 5573 5573 5574 5576 5578 5578 5579
5544 5547 5546 5551 5550 5537 5544 5559 5560 5567 5562 5565 5570 5569 5570 5568 5572 5578 5572 5568 5565 5559 5559 5561 5562 5565 5565 5567 5568 5568 5567 5568 5567 5566 5565 5562 5561 5562 5565 5566 5567 5566 5565 5565 5567 5569 5572 5570 5571 5574 5578 5577 5579 5576
5538 5537 5540 5541 5539 5532 5550 5557 5560 5559 5562 5561 5561 5563 5564 5565 5572 5567 5566 5555 5553 5553 5556 5561 5559 5557 5558 5558 5556 5556 5557 5559 5560 5557 5555 5554 5555 5554 5559 5561 5564 5566 5567 5567 5567 5566 5564 5568 5570 5572 5575 5575 5572 5568
5521 5525 5520 5511 5535 5543 5548 5554 5557 5555 5556 5559 5560 5558 5559 5562 5560 5558 5556 5549 5547 5551 5557 5559 5556 5555 5553 5551 5553 5555 5554 5555 5557 5554 5554 5555 5554 5556 5559 5563 5564 5564 5566 5565 5565 5568 5570 5570 5567 5571 5571 5568 5566 5561
5514 5530 5522 5543 5548 5546 5551 5551 5553 5553 5551 5554 5555 5557 5557 5555 5555 5553 5548 5549 5550 5554 5556 5554 5554 5553 5550 5550 5548 5549 5552 5555 5557 5556 5557 5557 5556 5555 5555 5556 5561 5567 5570 5569 5567 5568 5571 5572 5570 5572 5570 5567 5563 5560
5515 5535 5540 5545 5548 5551 5551 5553 5553 5549 5549 5550 5550 5550 5550 5550 5552 5544 5549 5552 5552 5558 5559 5555 5554 5551 5548 5549 5548 5550 5552 5556 5557 5557 5560 5562 5565 5566 5563 5562 5563 5567 5572 5572 5571 5571 5572 5573 5575 5573 5569 5567 5564 5562
5532 5540 5542 5547 5548 5550 5549 5549 5548 5548 5549 5550 5548 5545 5543 5544 5543 5547 5548 5555 5557 5558 5558 5557 5556 5552 5551 5549 5548 5549 5553 5558 5560 5563 5565 5571 5576 5577 5575 5572 5572 5571 5571 5571 5572 5572 5572 5572 5571 5568 5566 5564 5562 5561
5532 5540 5543 5546 5550 5552 5554 5553 5551 5552 5556 5552 5546 5544 5545 5549 5555 5554 5556 5558 5561 5558 5556 5555 5553 5553 5552 5553 5552 5556 5558 5558 5558 5561 5560 5563 5567 5573 5578 5578 5574 5571 5569 5567 5567 5569 5570 5568 5568 5566 5565 5564 5562 5562
5540 5547 5548 5554 5555 5555 5559 5558 5558 5562 5561 5560 5557 5554 5554 5558 5563 5566 5565 5562 5559 5558 5562 5562 5560 5558 5559 5556 5557 5561 5563 5563 5563 5561 5559 5561 5564 5572 5575 5574 5573 5570 5568 5567 5567 5567 5567 5568 5568 5566 5562 5559 5559 5558
5554 5554 5554 5557 5561 5567 5569 5570 5572 5572 5570 5568 5564 5558 5560 5562 5565 5568 5568 5568 5567 5566 5564 5562 5563 5565 5565 5563 5562 5564 5565 5569 5568 5568 5568 5567 5569 5571 5571 5571 5569 5567 5566 5565 5564 5564 5564 5564 5563 5562 5560 5558 5557 5554
5559 5559 5560 5563 5566 5574 5578 5575 5573 5571 5570 5568 5565 5569 5567 5563 5562 5564 5570 5569 5567 5567 5568 5569 5568 5569 5572 5571 5571 5570 5571 5569 5568 5569 5571 5569 5568 5569 5568 5566 5566 5565 5564 5564 5563 5563 5564 5562 5560 5559 5558 5556 5555 5553
5565 5568 5571 5571 5570 5574 5576 5577 5575 5569 5568 5568 5570 5569 5568 5566 5567 5567 5574 5574 5572 5574 5574 5574 5574 5574 5573 5571 5570 5568 5568 5568 5568 5567 5567 5566 5565 5565 5565 5563 5562 5562 5560 5559 5560 5560 5559 5559 5556 5557 5556 5554 5551 5550